• In Moldova, Republic
  • List of Countries
  • For 7 days
  • Water Temperature
  • Satellite Maps
  • Weather Map
  • Weather Widgets
  • user-avatar
    Login

    Hourly Weather Gjirokaster

    Today, 29 April, Saturday

    Time Temperature Precipitation Wind Pressure Humidity
    00:00 +8°C° 0 mm 3 mps 650 mmHg 50%
    01:00 +8°C° 0 mm 3 mps 650 mmHg 49%
    02:00 +8°C° 0 mm 3 mps 649 mmHg 46%
    03:00 +8°C° 0 mm 3 mps 649 mmHg 42%
    04:00 +8°C° 0 mm 3 mps 649 mmHg 39%
    05:00 +10°C° 0 mm 3 mps 649 mmHg 40%
    06:00 +11°C° 0 mm 3 mps 650 mmHg 40%
    07:00 +12°C° 0 mm 3 mps 650 mmHg 41%
    08:00 +14°C° 0 mm 3 mps 650 mmHg 36%
    09:00 +16°C° 0 mm 3 mps 650 mmHg 32%
    10:00 +17°C° 0 mm 3 mps 651 mmHg 28%
    11:00 +17°C° 0.1 mm 3 mps 650 mmHg 32%
    12:00 +16°C° 0.1 mm 3 mps 650 mmHg 36%
    13:00 +16°C° 0.1 mm 3 mps 650 mmHg 40%
    14:00 +16°C° 0 mm 3 mps 649 mmHg 41%
    15:00 +16°C° 0 mm 2 mps 649 mmHg 42%
    16:00 +16°C° 0 mm 2 mps 649 mmHg 42%
    17:00 +14°C° 0 mm 2 mps 648 mmHg 50%
    18:00 +12°C° 0 mm 2 mps 648 mmHg 58%
    19:00 +8°C° 0 mm 3 mps 647 mmHg 66%
    20:00 +8°C° 0.1 mm 2 mps 647 mmHg 67%
    21:00 +7°C° 0.1 mm 2 mps 647 mmHg 68%
    22:00 +7°C° 0.1 mm 2 mps 647 mmHg 69%
    23:00 +6°C° 0 mm 2 mps 647 mmHg 68%

    Tomorrow, 30 April, Sunday

    Time Temperature Precipitation Wind Pressure Humidity
    00:00 +5°C° 0 mm 3 mps 647 mmHg 67%
    01:00 +5°C° 0 mm 3 mps 647 mmHg 67%
    02:00 +5°C° 0 mm 3 mps 646 mmHg 69%
    03:00 +4°C° 0 mm 3 mps 646 mmHg 71%
    04:00 +4°C° 0 mm 3 mps 646 mmHg 73%
    05:00 +7°C° 0 mm 3 mps 647 mmHg 68%
    06:00 +9°C° 0 mm 3 mps 647 mmHg 64%
    07:00 +11°C° 0 mm 3 mps 648 mmHg 60%
    08:00 +13°C° 0 mm 3 mps 649 mmHg 54%
    09:00 +16°C° 0 mm 3 mps 649 mmHg 48%
    10:00 +18°C° 0 mm 4 mps 650 mmHg 43%
    11:00 +18°C° 0.5 mm 4 mps 650 mmHg 46%
    12:00 +18°C° 0.5 mm 4 mps 649 mmHg 49%
    13:00 +16°C° 0.5 mm 5 mps 649 mmHg 52%
    14:00 +17°C° 0.9 mm 4 mps 649 mmHg 56%
    15:00 +15°C° 0.9 mm 4 mps 649 mmHg 61%
    16:00 +14°C° 0.9 mm 4 mps 648 mmHg 65%
    17:00 +12°C° 0.5 mm 4 mps 648 mmHg 72%
    18:00 +10°C° 0.5 mm 4 mps 648 mmHg 79%
    19:00 +7°C° 0.5 mm 4 mps 648 mmHg 87%
    20:00 +8°C° 0.3 mm 3 mps 648 mmHg 87%
    21:00 +7°C° 0.3 mm 3 mps 648 mmHg 88%
    22:00 +7°C° 0.3 mm 3 mps 648 mmHg 89%
    23:00 +7°C° 0.1 mm 3 mps 648 mmHg 89%

    Day after tomorrow, 1 May, Monday

    Time Temperature Precipitation Wind Pressure Humidity
    00:00 +5°C° 0.1 mm 3 mps 648 mmHg 90%
    01:00 +6°C° 0.1 mm 2 mps 648 mmHg 90%
    02:00 +5°C° 0.1 mm 3 mps 648 mmHg 90%
    03:00 +4°C° 0.1 mm 3 mps 648 mmHg 90%
    04:00 +4°C° 0.1 mm 3 mps 648 mmHg 90%
    05:00 +7°C° 0 mm 3 mps 648 mmHg 84%
    06:00 +8°C° 0 mm 2 mps 649 mmHg 78%
    07:00 +10°C° 0 mm 2 mps 649 mmHg 72%
    08:00 +13°C° 0 mm 2 mps 650 mmHg 64%
    09:00 +14°C° 0 mm 3 mps 651 mmHg 56%
    10:00 +17°C° 0 mm 3 mps 651 mmHg 47%
    11:00 +17°C° 0.3 mm 3 mps 651 mmHg 50%
    12:00 +17°C° 0.3 mm 3 mps 651 mmHg 52%
    13:00 +17°C° 0.3 mm 4 mps 651 mmHg 55%
    14:00 +15°C° 0.7 mm 4 mps 651 mmHg 60%
    15:00 +15°C° 0.7 mm 4 mps 651 mmHg 65%
    16:00 +14°C° 0.7 mm 4 mps 650 mmHg 70%
    17:00 +12°C° 0.6 mm 3 mps 650 mmHg 77%
    18:00 +10°C° 0.6 mm 3 mps 650 mmHg 84%
    19:00 +8°C° 0.6 mm 2 mps 650 mmHg 92%
    20:00 +7°C° 0.1 mm 2 mps 650 mmHg 92%
    21:00 +7°C° 0.1 mm 2 mps 650 mmHg 92%
    22:00 +7°C° 0.1 mm 1 mps 650 mmHg 92%
    23:00 +7°C° 0 mm 1 mps 650 mmHg 92%

    2 May, Tuesday

    Time Temperature Precipitation Wind Pressure Humidity
    00:00 +7°C° 0 mm 1 mps 649 mmHg 92%
    01:00 +6°C° 0 mm 1 mps 649 mmHg 92%
    02:00 +6°C° 0 mm 1 mps 649 mmHg 92%
    03:00 +6°C° 0 mm 1 mps 649 mmHg 92%
    04:00 +5°C° 0 mm 1 mps 649 mmHg 92%
    05:00 +8°C° 0 mm 1 mps 650 mmHg 86%
    06:00 +10°C° 0 mm 1 mps 650 mmHg 80%
    07:00 +13°C° 0 mm 1 mps 651 mmHg 73%
    08:00 +14°C° 0 mm 1 mps 652 mmHg 66%
    09:00 +16°C° 0 mm 2 mps 652 mmHg 59%
    10:00 +18°C° 0 mm 2 mps 653 mmHg 51%
    11:00 +18°C° 0.1 mm 2 mps 653 mmHg 51%
    12:00 +18°C° 0.1 mm 3 mps 653 mmHg 50%
    13:00 +18°C° 0.1 mm 3 mps 652 mmHg 50%
    14:00 +18°C° 0.4 mm 3 mps 652 mmHg 53%
    15:00 +17°C° 0.4 mm 3 mps 652 mmHg 56%
    16:00 +16°C° 0.4 mm 3 mps 652 mmHg 60%
    17:00 +13°C° 0.1 mm 3 mps 652 mmHg 66%
    18:00 +11°C° 0.1 mm 3 mps 651 mmHg 73%
    19:00 +8°C° 0.1 mm 2 mps 651 mmHg 80%
    20:00 +8°C° 0.1 mm 2 mps 651 mmHg 81%
    21:00 +7°C° 0.1 mm 2 mps 651 mmHg 82%
    22:00 +7°C° 0.1 mm 2 mps 651 mmHg 83%
    23:00 +6°C° 0 mm 2 mps 651 mmHg 84%

    3 May, Wednesday

    Time Temperature Precipitation Wind Pressure Humidity
    00:00 +6°C° 0 mm 2 mps 651 mmHg 85%
    01:00 +6°C° 0 mm 2 mps 650 mmHg 86%
    02:00 +5°C° 0 mm 2 mps 650 mmHg 87%
    03:00 +6°C° 0 mm 1 mps 650 mmHg 88%
    04:00 +6°C° 0 mm 1 mps 650 mmHg 89%
    05:00 +8°C° 0 mm 1 mps 651 mmHg 82%
    06:00 +11°C° 0 mm 1 mps 651 mmHg 75%
    07:00 +13°C° 0 mm 1 mps 652 mmHg 68%
    08:00 +15°C° 0 mm 1 mps 653 mmHg 61%
    09:00 +16°C° 0 mm 2 mps 653 mmHg 54%
    10:00 +18°C° 0 mm 2 mps 653 mmHg 48%
    11:00 +18°C° 0.1 mm 3 mps 653 mmHg 47%
    12:00 +18°C° 0.1 mm 3 mps 653 mmHg 46%
    13:00 +19°C° 0.1 mm 3 mps 653 mmHg 45%
    14:00 +18°C° 0.1 mm 3 mps 653 mmHg 48%
    15:00 +18°C° 0.1 mm 3 mps 652 mmHg 51%
    16:00 +17°C° 0.1 mm 3 mps 652 mmHg 53%
    17:00 +13°C° 0.1 mm 3 mps 652 mmHg 63%
    18:00 +12°C° 0.1 mm 2 mps 651 mmHg 73%
    19:00 +8°C° 0.1 mm 2 mps 651 mmHg 83%
    20:00 +8°C° 0 mm 2 mps 650 mmHg 85%
    21:00 +8°C° 0 mm 1 mps 650 mmHg 87%
    22:00 +7°C° 0 mm 1 mps 650 mmHg 89%
    23:00 +7°C° 0 mm 1 mps 650 mmHg 89%

    4 May, Thursday

    Time Temperature Precipitation Wind Pressure Humidity
    00:00 +6°C° 0 mm 1 mps 650 mmHg 89%
    01:00 +6°C° 0 mm 1 mps 650 mmHg 89%
    02:00 +6°C° 0 mm 1 mps 649 mmHg 90%
    03:00 +5°C° 0 mm 1 mps 649 mmHg 90%
    04:00 +5°C° 0 mm 1 mps 649 mmHg 90%
    05:00 +8°C° 0 mm 1 mps 650 mmHg 82%
    06:00 +10°C° 0 mm 1 mps 650 mmHg 74%
    07:00 +13°C° 0 mm 1 mps 651 mmHg 66%
    08:00 +14°C° 0 mm 1 mps 652 mmHg 58%
    09:00 +16°C° 0 mm 1 mps 652 mmHg 51%
    10:00 +17°C° 0 mm 2 mps 652 mmHg 44%
    11:00 +17°C° 0 mm 2 mps 652 mmHg 42%
    12:00 +18°C° 0 mm 2 mps 652 mmHg 41%
    13:00 +18°C° 0 mm 3 mps 652 mmHg 40%
    14:00 +18°C° 0 mm 3 mps 652 mmHg 43%
    15:00 +17°C° 0 mm 2 mps 651 mmHg 45%
    16:00 +16°C° 0 mm 2 mps 651 mmHg 48%
    17:00 +13°C° 0 mm 2 mps 651 mmHg 59%
    18:00 +11°C° 0 mm 1 mps 650 mmHg 71%
    19:00 +8°C° 0 mm 1 mps 650 mmHg 82%
    20:00 +7°C° 0 mm 1 mps 650 mmHg 83%
    21:00 +7°C° 0 mm 1 mps 649 mmHg 85%
    22:00 +6°C° 0 mm 1 mps 649 mmHg 87%
    23:00 +5°C° 0 mm 0 mps 649 mmHg 87%
    Show more